Location: Cortos
(40.7190°N, 4.5893°W)
Time: 19:55:44
(UTC+00:00)

CZ-2C R/B - Pass Details

Date: 05 July 2020
Orbit: 641 x 704 km, 98.4° (Epoch: 05 August)

Event Time Altitude Azimuth Distance (km) Brightness Sun altitude
Rises 20:21:09 0° 14° (NNE) 3,093 7.5 -5.3°
Reaches altitude 10° 20:23:25 10° 16° (NNE) 2,175 6.6 -5.7°
Maximum altitude 20:28:12 76° 103° (ESE) 729 3.8 -6.4°
Drops below altitude 10° 20:32:57 10° 189° (S) 2,162 6.1 -7.1°
Sets 20:35:12 0° 191° (S) 3,073 6.8 -7.4°
